Regional Weather Roundup
Issued by NWS

Home | Current Version | Previous Version | Graphics & Text | Print | Product List | Glossary Off
Versions: 1 2 3 4 5 6 7 8 9 10 11 12 13 14 15 16 17 18 19 20 21 22 23 24 25 26 27 28 29 30 31 32 33 34 35 36 37 38 39 40 41 42 43 44 45 46 47 48 49 50

000
ASUS43 KMPX 051501
RWRMN
WEATHER ROUNDUP FOR MINNESOTA
NATIONAL WEATHER SERVICE TWIN CITIES/CHANHASSEN MN
900 AM CST MON DEC 05 2016


NOTE: "FAIR" INDICATES FEW OR NO CLOUDS BELOW 12,000 FEET WITH NO
SIGNIFICANT WEATHER AND/OR OBSTRUCTIONS TO VISIBILITY. N/A MEANS
CURRENT SKY AND/OR WEATHER CONDITIONS ARE NOT AVAILABLE.

MNZ060>063-068>070-051600-
   Twin Cities Metro

CITY           SKY/WX    TMP DP  RH WIND       PRES   REMARKS
TWIN CITIES    CLOUDY    31  28  89 SE10      29.77S WCI  22
ST PAUL        MOSUNNY   31  30  96 SE3       29.79S
CRYSTAL        CLOUDY    31  28  89 E6        29.74F WCI  25
BLAINE         PTSUNNY   32  32 100 SE5       29.77R WCI  27
LAKEVILLE      CLOUDY    30  30 100 SE3       29.76F
EDEN PRAIRIE   PTSUNNY   32  29  88 E7        29.74F WCI  26
SOUTH ST PAUL  CLOUDY    31  31 100 S3        29.78F
LAKE ELMO      FAIR      30  30 100 SE6       29.79S WCI  24
$$
MNZ001>005-007-008-013>017-022>024-027-028-051600-
   Northwest Minnesota

CITY           SKY/WX    TMP DP  RH WIND       PRES   REMARKS
BEMIDJI        CLOUDY    27  25  95 E7        29.71F WCI  19
HALLOCK        CLOUDY    28  27  93 SE7       29.71F WCI  21
ROSEAU         CLOUDY    30  25  80 E3        29.72R
WARROAD        CLOUDY    28  25  86 CALM      29.72S
THIEF RVR FALL CLOUDY    26  25  96 E10       29.72R WCI  16
CROOKSTON      CLOUDY    27  27 100 E9        29.71R FOG     WCI  17
FOSSTON        CLOUDY    25  25 100 E7        29.70R FOG     WCI  17
DETROIT LAKES  CLEAR     27  25  93 SE9       29.67S WCI  17
MOORHEAD       CLEAR     25  21  86 E6        29.65S WCI  18
PARK RAPIDS    FOG       26  23  88 E7        29.69F VSB 1/4 WCI  18
$$
MNZ006-009>011-018-025>026-051600-
   North Central Minnesota

CITY           SKY/WX    TMP DP  RH WIND       PRES   REMARKS
BAUDETTE       CLOUDY    29  25  85 CALM      29.73R
FLAG ISLAND    CLOUDY    30  27  86 SW5       29.70R WCI  25
INTL FALLS     CLOUDY    29  26  89 W3        29.73R
WASKISH        CLOUDY    28  27  93 CALM      29.74R
BIG FORK       CLOUDY    28  27  93 S6        29.76R WCI  22
LONGVILLE      CLOUDY    27  25  93 CALM      29.72F
GRAND RAPIDS   CLOUDY    28  25  88 CALM      29.76R
CRANE LAKE     CLOUDY    28  27  93 CALM      29.77R
COOK           CLOUDY    28  25  86 CALM      29.75R
$$
MNZ012-019>021-037-051600-
   Northeast Minnesota

CITY           SKY/WX    TMP DP  RH WIND       PRES   REMARKS
DULUTH         PTCLDY    31  26  82 W5        29.76R WCI  26
ELY            CLOUDY    28  27  93 W5        29.75R WCI  23
HIBBING        CLOUDY    28  24  85 SW5       29.76R WCI  23
EVELETH        CLOUDY    30  26  84 SW6       29.77R WCI  24
DULUTH HARBOR  PTCLDY    34  28  80 SW3       29.81R
TWO HARBORS    MOCLDY    34  28  80 W3        29.76R
SILVER BAY     CLOUDY    32  28  86 CALM      29.75S
GRAND MARAIS     N/A     34  30  85 W7        29.78R WCI  28
G MARAIS ARPRT CLOUDY    27  23  86 W5        29.73R WCI  21
$$
MNZ029>031-032-039>041-046>048-054>057-064-051600-
   West Central Minnesota

CITY           SKY/WX    TMP DP  RH WIND       PRES   REMARKS
FERGUS FALLS   CLOUDY    30  27  86 E7        29.67S WCI  23
MORRIS         CLEAR     32  30  93 SE10      29.62S WCI  24
ALEXANDRIA     CLEAR     29  27  92 E13       29.67S WCI  19
ELBOW LAKE     FAIR      29  27  90 SE16      29.64R WCI  18
WADENA         MOCLDY    19  19 100 E3        29.68F FOG
GLENWOOD       CLEAR     30  28  93 E12       29.66F WCI  21
APPLETON       CLEAR     30  28  93 SE10      29.63F WCI  21
BENSON         CLEAR     32  28  86 SE9       29.64S WCI  24
ORTONVILLE     PTCLDY    28  27  93 SE9       29.60F WCI  20
MADISON        PTCLDY    32  32 100 E10       29.62F WCI  24
WILLMAR        FAIR      32  30  93 E13       29.67S WCI  22
$$
MNZ033>034-036-042>043-049>051-058-059-051600-
   Central Minnesota

CITY           SKY/WX    TMP DP  RH WIND       PRES   REMARKS
ST CLOUD       PTCLDY    28  28 100 E6        29.74R WCI  22
PAYNESVILLE    CLOUDY    29  30 100 E9        29.69F WCI  21
AITKIN         CLOUDY    28  25  86 E6        29.74S FOG     WCI  22
PINE RIVER     CLOUDY    27  27 100 E6        29.75F FOG     WCI  20
BRAINERD       FOG       24  23  96 E5        29.73F VSB 1/4 WCI  18
STAPLES        CLEAR     23  23 100 CALM      29.70F
LONG PRAIRIE   FAIR      27  27 100 NE6       29.71R FOG     WCI  20
LITTLE FALLS   CLEAR     28  27  93 E5        29.73R WCI  23
LITCHFIELD     PTCLDY    34  32  93 E8        29.70S WCI  27
BUFFALO        PTSUNNY   31  29  94 E5        29.74F WCI  26
MAPLE LAKE     MOSUNNY   32  32 100 SE5       29.74S WCI  27
$$
MNZ037-044-045-052-053-051600-
   East Central Minnesota

CITY           SKY/WX    TMP DP  RH WIND       PRES   REMARKS
PRINCETON      MOSUNNY   28  28 100 CALM      29.76R FOG
MORA           FOG       27  27 100 CALM      29.80R VSB 1/4
CAMBRIDGE      MOSUNNY   30  28  93 CALM      29.75S FOG
RUSH CITY      SUNNY     27  27 100 SE5       29.79R WCI  21
MOOSE LAKE     CLOUDY    30  28  93 CALM      29.77R
HINCKLEY       FOG       28  28 100 E3        29.79R VSB<1/4
CLOQUET        CLOUDY    28  27  93 CALM      29.77R
MCGREGOR       MOCLDY    28  27  93 SE5       29.76R WCI  23
$$
MNZ071>073-080-081-089-090-097-098-051600-
   Southwest Minnesota

CITY           SKY/WX    TMP DP  RH WIND       PRES   REMARKS
MONTEVIDEO     PTCLDY    30  30 100 S9        29.65S WCI  22
GRANITE FALLS  MOCLDY    33  32  94 E7        29.65F WCI  27
CANBY          PTCLDY    31  31  99 CALM      29.61F
MARSHALL       CLOUDY    34  30  85 SE9       29.62S WCI  27
REDWOOD FALLS  CLOUDY    34  30  85 SE12      29.65F WCI  25
OLIVIA         CLOUDY    34  32  93 SE10      29.66R WCI  26
PIPESTONE      PTCLDY    36  30  80 S8        29.57F
WINDOM         CLOUDY    37  30  75 S15G23    29.64S
WORTHINGTON    CLOUDY    36  30  79 S18       29.64R
JACKSON        CLOUDY    34  30  86 S17G24    29.67S WCI  23
TRACY          CLOUDY    36  32  85 S9        29.62S
SLAYTON        CLOUDY    33  30  88 S13       29.61F WCI  24
$$
MNZ065>067-074>077-082>085-091>093-051600-
   South Central Minnesota

CITY           SKY/WX    TMP DP  RH WIND       PRES   REMARKS
MANKATO        CLOUDY    35  31  85 SE15      29.72F WCI  25
NEW ULM        CLOUDY    34  32  93 SE12      29.68S WCI  25
ST JAMES       CLOUDY    36  32  87 SE12      29.69S
FAIRMONT       CLOUDY    35  31  85 S13       29.71F WCI  26
GLENCOE        CLOUDY    34  33  98 E8        29.70F WCI  27
FARIBAULT      CLOUDY    36  30  80 SE12G17   29.77F
OWATONNA       CLOUDY    34  30  86 SE18      29.76S WCI  23
WASECA         CLOUDY    34  32  93 SE13      29.75F WCI  25
ALBERT LEA     CLOUDY    36  36 100 SE13      29.77F FOG
$$
MNZ078>079-086>088-094>096-051600-
   Southeast Minnesota

CITY           SKY/WX    TMP DP  RH WIND       PRES   REMARKS
ROCHESTER      CLOUDY    31  30  96 S15       29.81S FOG     WCI  20
RED WING       CLOUDY    34  30  86 SE13      29.80R FOG     WCI  25
STANTON        CLOUDY    35  31  85 S7        29.77R WCI  29
DODGE CENTER   MOSUNNY   34  30  86 S15       29.79S WCI  24
WINONA         CLOUDY    34  32  93 SE7       29.86S FOG     WCI  28
AUSTIN         CLOUDY    30  30 100 S9        29.80F FOG     WCI  22
PRESTON        CLOUDY    30  29  97 S12       29.85R FOG     WCI  20
$$
ABBREVIATIONS USED IN REMARKS
   TC - TEMPERATURES IN CELSIUS
  WCI - WIND CHILL INDEX
   HX - HEAT INDEX
  VSB - VISIBILITY
$$




USA.gov is the U.S. government's official web portal to all federal, state and local government web resources and services.